Location: B�di�
(14.6834°N, 3.1047°W)
Time: 04:48:19
(UTC+00:00)

Meteor 1-27 - Pass Details

Date: 24 January 2020
Orbit: 836 x 894 km, 81.3° (Epoch: 17 February)

Event Time Altitude Azimuth Distance (km) Brightness Sun altitude
Rises 19:18:09 0° 2° (N) 3,380 7.2 -17.2°
Reaches altitude 10° 19:20:37 10° 7° (N) 2,448 6.4 -17.8°
Maximum altitude 19:26:00 53° 83° (E) 1,032 4.2 -19.0°
Drops below altitude 10° 19:31:26 10° 160° (SSE) 2,472 6.6 -20.3°
Sets 19:33:56 0° 164° (SSE) 3,416 7.4 -20.9°
